Location: Ash Swamp
(41.5170°N, 74.6157°W)
Time: 01:34:06
(UTC+00:00)

Cosmos 2208 Rocket - Pass Details

Date: 14 July 2020
Orbit: 754 x 806 km, 74.0° (Epoch: 14 August)

Event Time Altitude Azimuth Distance (km) Brightness Sun altitude
Rises 08:47:32 0° 339° (NNW) 3,311 7.5 -8.5°
Reaches altitude 10° 08:49:57 10° 338° (NNW) 2,370 6.8 -8.1°
Maximum altitude 08:55:21 81° 252° (WSW) 800 4.0 -7.4°
Drops below altitude 10° 09:00:38 10° 166° (SSE) 2,320 6.3 -6.6°
Sets 09:02:59 0° 165° (SSE) 3,235 7.0 -6.2°
